Location: Charlottesville
(38.0290°N, 78.4770°W)
Time: 17:29:53
(UTC-04:00)

N. Korean satellite - Pass Details

Date: 14 October 2017
Orbit: 459 x 517 km, 97.2° (Epoch: 19 October)

Event Time Altitude Azimuth Distance (km) Brightness Sun altitude
Rises 19:21:50 0° 170° (S) 2,552 10.2 -9.6°
Reaches altitude 10° 19:23:55 10° 171° (S) 1,665 9.2 -10.0°
Maximum altitude 19:27:30 79° 259° (WSW) 494 6.7 -10.7°
Drops below altitude 10° 19:31:02 10° 346° (NNW) 1,647 9.4 -11.4°
Sets 19:33:05 0° 348° (NNW) 2,520 10.3 -11.8°
